星链-4285 (STARLINK-4285 )

导读 | 豆包AI

STARLINK-4285是美国太空探索技术公司Starlink(星链)星座中的一颗卫星,于2022年7月7日发射升空。星链旨在构建全球卫星互联网,为偏远地区等提供高速网络服务,该卫星入轨后,为星座网络提供了更多容量与覆盖能力,推进星链星座全球组网进程。

Basic Information
目录编号:
52991
目录名称:
STARLINK-4285
国际标识:
2022-076F
轨道中心:
EARTH
卫星名称:
星链-4285
卫星全名:
星链-4285 (STARLINK-4285 )
卫星状态:
在轨 (已飞行1347 天)
发射日期:
2022-07-07 UTC
国别 :
美国 (US)
星等 :
--
Orbit Information
数据来源 国际轨道数据 AOE轨道数据
星历时间 2026-03-14T18:37:58+0800
16小时前
查看轨道信息
2026-03-13T01:00:00+0800
2天前
查看轨道信息
半长轴 6917.879km 6917.905km
偏心率 0.000127 0.0001818
轨道倾角 53.217° 53.217°
近地点辐角 85.590° 97.236°
升交点赤经 82.781° 90.569°
平近点角 274.524° 195.160°
近地点 538.863km 538.51km
远地点 540.621km 541.026km
周期 95.438分钟 95.438分钟
每日圈数 15.088405 15.08832
Detailed Information
固有亮度:
5
最大亮度:
2.5
卫星平台:
Starlink v1.5
覆盖范围:
全球
运营商:
太空探索技术公司
运营商所在国:
美国
制造商(研发单位):
太空探索技术公司
制造商所在国:
美国
使用方式:
暂无
Satellite Introduction
星链(Starlink)计划是由太空探索技术公司(SpaceX)提出的一个巨型低轨卫星互联网星座项目,计划在2019年至2024年间在太空搭建由约1.2万颗卫星组成的“星链”网络,其中1584颗将部署在地球上空550千米处的近地轨道,并从2020年开始工作。该卫星仍在工作。
2D Orbit Map
3D Orbit Map
Orbit Altitude Analysis Chart
Orbit Inclination Analysis Chart
Orbit Comprehensive Analysis Chart
View Comprehensive Chart